Weather in Kouvola

Finland     60°52′14″N   26°42′11″E
temp.,
°C
wind,
m/s
gust,
m/s
humid.,
%
clouds,
%
prec.,
mm/h
press.,
hPa
HPBL,
m
9 may, sun
sun900:00+2w310714 0.0 1010243
03:00+1w39757 0.0 1012221
06:000wnw27795 0.0 1013176
09:00+7w12435 0.0 1014462
12:00+10ssw463427 0.0 10151770
15:00+9wsw375497 0.4 10161446
18:00+11sw5837100 0.2 10161512
21:00+7s376293 0.2 1017212
10 may, mon
mon1000:00+5se2770100 0.0 1016208
03:00+6s3984100 0.3 1016894
06:00+5sse51196100 4.1 1014652
09:00+6s41293100 5.6 1014510
12:00+12ssw61178100 0.0 1015756
15:00+10s31290100 0.2 1016431
18:00+13sse31082100 0.1 1016285
21:00+14ssw5157486 0.1 1016698
11 may, tue
tue1100:00+13ssw51582100 0.0 1018573
03:00+11ssw41490100 0.0 1019426
06:00+10s3129440 0.0 1020342
09:00+14ssw597378 0.0 1021482
12:00+18ssw596023 0.0 1022735
15:00+20s584995 0.0 10221133
18:00+19sse48524 0.0 1022527
21:00+14sse312674 0.0 1022288
12 may, wed
wed1200:00+11sse210760 0.0 1023205
03:00+9se27830 0.0 1024128
06:00+9se26855 0.0 1024145
09:00+15sse3661100 0.0 1024352
12:00+18sse4747100 0.0 1024636
15:00+19sse464415 0.0 1023805
18:00+19sse344846 0.0 1022613
21:00+15ese1269100 0.0 102112
13 may, thu
thu1300:00+13ene227572 0.0 102132
03:00+12ene27830 0.0 1019113
06:00+13e312780 0.0 1018306
09:00+16se58705 0.0 1018723
12:00+18se57555 0.0 10171192
15:00+19se574172 0.0 10161326
18:00+19ese474177 0.0 10151470
21:00+15se2559100 0.0 1013140